Wind_Speed
67 66 68 71 72 71 71 69 69 70 69 68 68 69 68 65 62 62 64 64 63 61 62 64 66 65 64 63 60 57 58 56 57 58 58 59 58 58 57 57 59 60 57
63 62 63 65 72 73 72 70 70 69 69 69 69 67 67 67 64 61 61 59 58 58 59 60 63 63 58 52 52 49 50 52 53 52 53 53 54 57 56 56 57 59 59
52 54 56 56 61 70 70 69 71 71 71 68 67 66 64 64 62 58 57 55 54 52 53 52 55 54 49 44 42 45 45 47 43 45 47 48 50 50 52 54 54 55 59
47 46 47 51 55 58 60 66 67 66 66 65 63 62 61 60 59 56 52 51 48 46 48 44 41 37 34 29 29 33 35 37 37 38 41 41 44 44 47 47 49 47 49
45 45 46 47 49 53 56 59 57 57 59 58 60 59 58 58 56 53 52 50 46 46 44 42 42 33 21 18 24 26 28 25 26 28 29 31 31 34 38 39 38 41 44
48 47 46 44 44 46 50 55 54 55 54 55 57 57 59 57 57 55 50 47 47 43 36 34 33 26 22 24 23 28 31 33 30 23 29 26 26 29 29 31 34 33 38
50 52 50 49 51 49 54 55 56 54 55 55 55 56 57 57 59 59 55 52 49 42 33 32 33 32 26 31 27 16 35 30 37 24 19 22 21 26 25 24 26 27 28
54 56 59 59 57 58 60 61 57 59 56 54 52 53 52 53 55 57 59 57 52 45 39 38 39 38 35 30 29 24 32 31 32 23 20 19 17 16 15 18 20 23 24
62 63 63 63 63 65 65 66 67 60 60 55 53 53 54 53 53 53 54 53 52 46 42 41 43 45 40 31 32 29 24 28 29 16 14 10 13 18 22 21 21 21 21
61 66 66 65 68 69 67 71 67 66 62 60 52 51 52 51 50 47 43 42 43 43 42 41 42 48 43 33 34 27 22 21 16 19 22 23 16 22 23 24 22 18 15
63 68 71 75 74 71 67 67 69 69 68 62 51 50 49 50 46 40 40 38 39 37 40 39 39 49 44 35 33 28 24 27 27 29 35 37 29 21 28 25 22 17 10
67 69 72 73 74 73 71 73 74 75 75 61 50 50 46 46 45 44 37 40 41 35 41 38 35 42 46 34 25 23 36 34 33 30 31 34 38 30 28 22 16 13 9
69 70 76 80 80 80 76 77 69 70 64 56 47 46 47 47 46 37 38 40 42 46 45 45 34 45 47 34 37 27 41 36 32 29 34 31 27 24 21 17 15 13 15
70 69 74 76 75 77 82 75 63 64 60 56 47 44 42 39 40 37 38 41 43 43 48 47 38 47 51 37 44 36 41 40 34 33 29 32 33 29 19 15 13 13 12
74 72 73 77 77 76 81 67 62 60 56 54 46 41 40 39 42 39 39 41 45 48 52 45 41 53 54 43 37 42 44 44 41 33 31 26 16 21 16 17 15 17 17
74 73 74 78 77 77 74 65 62 57 53 52 47 45 42 42 42 40 39 43 43 47 50 40 39 52 60 52 45 47 50 44 41 36 28 22 19 23 22 18 15 18 20
73 70 73 79 76 77 73 67 60 58 52 52 48 44 41 41 41 40 43 45 44 44 44 36 41 52 68 61 52 50 45 41 42 34 29 22 21 20 18 20 18 17 23
76 69 75 77 76 75 73 70 64 59 52 50 49 42 40 40 43 45 43 46 43 45 42 34 42 59 67 63 57 58 47 47 44 38 32 29 25 23 24 21 21 22 23
76 70 69 71 78 77 74 71 69 60 49 48 47 41 39 40 48 49 48 48 46 48 40 33 44 61 67 64 65 61 59 54 50 48 40 32 30 31 29 29 27 28 26
74 66 63 63 71 74 69 64 59 51 46 43 42 42 40 45 49 47 47 47 50 49 37 34 46 60 69 64 59 58 61 57 57 48 46 46 43 36 33 34 31 29 28
66 65 59 60 59 57 65 66 57 51 48 49 43 37 47 47 47 50 50 47 51 46 33 34 45 57 68 66 60 63 62 60 57 57 51 46 39 34 37 33 42 37 32
61 56 53 51 50 50 56 63 48 49 47 38 38 44 53 49 47 48 52 48 45 44 30 35 43 52 58 64 68 57 52 53 61 63 54 57 49 48 40 39 41 43 36
46 43 43 44 43 47 55 54 44 47 43 37 45 50 48 46 47 47 45 50 55 40 31 37 43 50 59 54 53 66 51 49 52 56 54 51 47 45 43 46 44 44 39
40 37 36 40 43 47 52 48 43 45 44 36 48 52 51 48 44 46 52 56 52 35 33 42 43 51 53 48 52 46 61 49 43 48 50 51 49 49 51 50 48 43 42
36 34 36 42 42 44 44 39 41 41 50 36 41 46 46 42 47 52 56 56 40 35 38 42 48 49 48 46 44 44 48 46 43 49 54 55 51 53 55 54 52 49 50
31 34 36 39 41 42 38 43 43 46 41 36 38 45 43 47 51 60 55 44 37 38 44 45 45 48 52 50 45 43 39 43 46 48 55 54 54 54 58 55 57 53 50
Wind_Direction
264 265 267 267 267 267 267 267 267 267 266 266 268 270 270 271 272 272 273 274 275 276 277 278 279 281 283 284 285 284 282 277 273 272 270 270 270 270 268 269 269 268 268
263 263 264 266 268 267 266 264 263 264 265 266 266 268 269 270 271 271 271 271 272 273 275 276 279 281 284 287 284 279 275 272 272 271 269 267 267 267 268 269 268 268 269
262 263 264 267 267 268 268 266 264 263 263 264 265 266 267 268 269 270 270 271 271 271 274 278 281 284 286 283 278 272 271 271 271 271 270 270 269 267 269 268 269 270 272
267 268 270 269 269 269 268 267 267 267 266 265 265 265 265 265 266 267 268 269 268 272 275 277 283 286 281 278 274 268 268 269 270 271 273 275 275 273 270 272 273 272 271
275 272 269 269 272 276 278 275 273 273 270 269 268 265 264 264 264 265 265 267 265 268 274 276 281 276 261 246 268 274 276 280 273 277 292 284 286 279 278 277 273 270 273
272 272 271 272 273 279 281 283 282 278 274 273 267 267 266 266 267 265 265 264 267 270 279 273 272 250 226 233 257 289 288 292 273 288 301 290 284 285 286 276 275 274 273
280 279 278 274 272 277 287 288 288 287 283 276 276 271 269 269 269 269 267 267 265 275 272 264 253 231 222 238 249 261 266 265 278 290 305 292 280 286 283 280 282 281 280
273 276 272 273 277 283 286 289 288 289 291 281 273 272 271 269 269 269 268 268 267 267 264 255 244 230 225 232 240 247 264 276 274 284 288 298 285 288 311 312 305 303 285
272 275 273 273 278 282 286 288 289 290 292 287 273 273 271 271 271 270 271 270 271 268 261 254 243 225 223 232 229 241 272 275 284 265 248 311 307 313 322 327 316 301 288
273 274 273 269 273 277 281 284 285 289 290 290 276 276 272 267 267 271 273 273 271 264 256 251 244 227 223 230 222 239 280 277 261 242 254 275 300 307 333 329 318 301 297
272 271 272 272 275 277 278 279 280 285 286 288 274 271 268 267 268 270 272 274 276 271 261 258 248 228 222 218 228 240 248 252 256 257 261 268 287 297 310 320 311 293 298
269 269 269 273 271 270 275 278 281 284 283 282 270 267 263 265 266 266 272 279 278 274 267 260 246 226 225 214 216 219 243 249 252 261 267 277 279 272 304 305 320 301 305
280 275 265 265 273 274 275 278 283 279 279 276 267 260 261 264 268 265 279 276 278 281 274 270 236 225 214 216 208 208 243 252 262 253 262 265 265 266 287 300 334 318 298
276 273 267 265 265 270 272 275 276 272 273 270 264 262 263 267 269 271 273 275 282 283 280 279 242 219 203 207 210 228 234 242 246 254 254 269 271 278 259 299 302 330 322
276 272 263 263 263 265 267 268 268 268 268 266 260 258 263 266 272 273 272 280 285 283 282 278 239 207 203 207 221 216 226 240 246 259 259 276 270 233 258 285 270 285 321
277 271 264 256 258 260 262 262 259 264 264 260 259 261 262 268 269 269 272 281 289 285 285 270 229 210 204 203 211 225 230 236 246 246 244 247 257 253 260 262 277 268 296
275 267 264 256 252 255 256 257 253 258 261 258 258 261 264 266 267 271 276 283 293 292 287 262 221 207 200 211 218 215 225 232 238 240 228 249 239 262 249 250 263 264 294
280 271 263 259 249 246 249 249 251 254 256 259 254 256 262 263 268 272 281 289 293 293 284 255 218 199 205 210 214 211 218 224 227 226 232 251 242 273 253 248 257 273 280
275 270 263 256 249 244 244 244 249 252 253 254 255 257 256 262 267 277 283 291 292 296 285 244 217 201 200 208 218 220 219 220 230 232 240 236 253 271 262 257 263 286 275
271 265 258 254 250 249 247 247 249 249 248 245 247 255 259 263 270 280 283 290 293 295 276 239 216 204 198 207 213 220 222 227 232 228 230 246 260 260 261 254 264 277 269
263 260 255 250 243 242 241 242 243 241 239 246 251 263 265 267 272 281 281 288 294 295 263 231 215 210 206 205 211 222 228 229 235 240 241 250 253 260 259 265 261 271 268
259 256 250 243 236 234 232 236 232 231 236 249 263 262 262 270 277 279 284 288 290 288 247 224 214 213 212 213 215 211 226 233 238 240 243 252 258 265 256 263 259 266 269
253 247 243 237 229 226 227 230 221 217 229 233 251 258 266 270 274 278 284 293 290 268 233 223 217 217 215 215 219 224 227 232 232 239 249 250 255 257 254 256 261 262 270
243 234 229 227 223 221 223 218 214 216 228 225 241 254 266 271 273 282 285 288 282 242 227 216 220 220 218 220 222 227 231 231 230 236 239 244 248 250 252 251 256 257 264
232 223 217 219 215 217 216 212 214 218 225 234 249 261 261 271 278 283 284 282 253 227 226 223 223 223 218 221 224 227 232 230 229 228 234 239 239 242 244 251 250 253 258
215 218 214 212 210 208 205 205 212 221 231 246 246 259 274 275 277 279 279 261 229 224 225 226 232 229 223 222 220 223 229 223 221 224 231 235 238 241 242 248 250 253 259
Height
10809 10808 10805 10803 10804 10805 10806 10808 10808 10807 10807 10807 10808 10808 10809 10808 10808 10808 10809 10809 10808 10808 10807 10804 10802 10802 10802 10802 10801 10800 10797 10794 10794 10796 10796 10796 10797 10797 10796 10797 10797 10797 10798
10799 10798 10795 10792 10790 10791 10793 10795 10796 10796 10796 10796 10796 10798 10798 10798 10797 10798 10798 10799 10798 10798 10796 10795 10793 10794 10792 10793 10791 10788 10785 10783 10783 10786 10785 10786 10787 10786 10786 10786 10787 10788 10788
10790 10788 10788 10785 10782 10781 10781 10782 10783 10785 10786 10785 10785 10786 10787 10787 10787 10786 10787 10789 10788 10788 10788 10788 10785 10784 10786 10784 10781 10779 10777 10776 10776 10777 10776 10776 10776 10777 10776 10776 10779 10779 10779
10779 10779 10778 10777 10774 10771 10772 10770 10772 10774 10776 10776 10776 10776 10776 10775 10776 10776 10778 10779 10780 10780 10779 10781 10780 10779 10779 10776 10775 10772 10772 10771 10771 10772 10770 10769 10769 10768 10768 10770 10771 10770 10770
10769 10768 10768 10767 10765 10763 10762 10761 10763 10765 10766 10766 10767 10767 10766 10765 10765 10766 10767 10768 10770 10771 10771 10774 10773 10773 10771 10770 10768 10768 10767 10766 10766 10767 10766 10765 10764 10763 10763 10763 10764 10763 10763
10760 10759 10757 10756 10756 10756 10754 10751 10751 10752 10753 10754 10754 10755 10755 10755 10754 10755 10755 10758 10760 10763 10764 10766 10767 10765 10763 10762 10762 10763 10761 10760 10762 10763 10763 10761 10759 10758 10758 10757 10757 10756 10755
10751 10750 10747 10747 10746 10746 10744 10740 10740 10741 10741 10742 10742 10743 10743 10743 10744 10745 10746 10746 10750 10754 10756 10756 10755 10756 10756 10755 10755 10756 10753 10755 10755 10760 10760 10758 10754 10753 10752 10751 10751 10750 10748
10740 10739 10737 10736 10736 10737 10735 10732 10730 10730 10729 10731 10731 10731 10731 10731 10731 10732 10733 10735 10739 10742 10746 10744 10745 10748 10749 10751 10751 10748 10747 10749 10750 10755 10757 10754 10752 10750 10749 10748 10746 10745 10744
10729 10729 10726 10723 10725 10725 10725 10722 10719 10719 10719 10719 10720 10721 10720 10720 10719 10720 10722 10724 10726 10729 10733 10735 10737 10739 10742 10742 10743 10738 10739 10742 10745 10750 10750 10750 10749 10747 10746 10743 10742 10741 10740
10722 10718 10712 10713 10712 10713 10714 10712 10709 10708 10708 10708 10709 10710 10709 10707 10708 10710 10713 10712 10713 10715 10719 10724 10728 10729 10731 10735 10733 10733 10733 10736 10740 10745 10745 10745 10746 10742 10742 10741 10740 10738 10737
10710 10709 10705 10697 10699 10701 10702 10701 10699 10697 10697 10698 10700 10701 10698 10698 10699 10700 10702 10702 10702 10704 10708 10712 10714 10719 10724 10726 10727 10726 10728 10732 10734 10739 10739 10739 10741 10741 10740 10739 10737 10735 10734
10696 10695 10696 10687 10686 10688 10688 10688 10688 10687 10686 10687 10688 10691 10689 10688 10689 10691 10694 10693 10693 10695 10696 10699 10702 10709 10715 10718 10720 10722 10722 10724 10727 10733 10734 10735 10735 10738 10738 10738 10735 10732 10732
10677 10677 10678 10677 10669 10670 10673 10675 10677 10675 10675 10674 10677 10680 10678 10678 10680 10683 10684 10684 10684 10685 10686 10687 10691 10695 10705 10710 10713 10715 10716 10717 10722 10724 10728 10730 10730 10733 10735 10735 10732 10730 10730
10660 10658 10657 10658 10658 10653 10655 10663 10666 10664 10664 10663 10666 10670 10669 10670 10671 10673 10675 10675 10674 10674 10674 10675 10678 10683 10693 10701 10706 10709 10709 10710 10716 10718 10722 10723 10725 10730 10730 10731 10729 10728 10727
10640 10638 10640 10641 10641 10638 10641 10649 10653 10653 10653 10652 10655 10659 10659 10661 10661 10663 10665 10666 10665 10663 10662 10663 10667 10674 10683 10693 10699 10701 10702 10704 10709 10713 10715 10717 10719 10723 10725 10726 10725 10724 10723
10617 10617 10617 10623 10625 10621 10625 10635 10639 10641 10643 10642 10644 10649 10649 10651 10651 10654 10655 10656 10655 10653 10650 10650 10654 10664 10676 10682 10689 10693 10695 10697 10701 10707 10711 10712 10715 10717 10719 10720 10720 10720 10719
10594 10596 10597 10600 10607 10605 10608 10618 10626 10628 10632 10632 10635 10639 10641 10641 10642 10643 10646 10646 10644 10641 10639 10639 10644 10654 10666 10672 10680 10683 10685 10689 10694 10701 10704 10706 10709 10711 10713 10714 10715 10714 10714
10566 10574 10575 10577 10584 10585 10592 10600 10610 10615 10622 10622 10625 10630 10631 10631 10632 10633 10635 10635 10634 10631 10628 10629 10634 10643 10654 10660 10667 10670 10675 10680 10686 10692 10697 10699 10703 10704 10707 10709 10710 10711 10709
10546 10550 10554 10556 10561 10563 10572 10584 10597 10604 10611 10612 10617 10620 10621 10621 10622 10623 10625 10624 10623 10621 10619 10620 10625 10633 10643 10651 10657 10661 10666 10670 10675 10683 10689 10692 10695 10699 10700 10702 10704 10705 10705
10527 10530 10533 10537 10540 10548 10560 10574 10585 10592 10599 10601 10605 10609 10610 10610 10611 10613 10613 10614 10612 10610 10609 10611 10618 10624 10635 10642 10648 10654 10659 10663 10666 10675 10681 10686 10689 10693 10694 10696 10697 10699 10700
10508 10510 10515 10518 10526 10533 10544 10557 10568 10580 10584 10590 10594 10597 10599 10600 10602 10602 10602 10604 10602 10600 10600 10603 10608 10615 10625 10632 10639 10646 10650 10656 10659 10665 10674 10679 10681 10684 10687 10689 10692 10692 10693
10489 10494 10499 10504 10512 10517 10528 10539 10555 10568 10577 10584 10586 10589 10589 10593 10592 10592 10591 10593 10592 10590 10591 10595 10601 10608 10615 10622 10630 10637 10642 10647 10653 10656 10666 10670 10673 10677 10679 10681 10683 10684 10685
10475 10481 10489 10493 10498 10507 10516 10530 10546 10556 10568 10572 10579 10577 10580 10581 10582 10581 10581 10580 10581 10581 10582 10588 10594 10600 10606 10613 10620 10630 10634 10640 10645 10650 10655 10660 10664 10667 10671 10673 10676 10677 10677
10463 10469 10475 10482 10489 10497 10507 10521 10536 10547 10556 10558 10563 10565 10568 10569 10570 10569 10569 10570 10569 10570 10575 10582 10587 10593 10600 10605 10613 10620 10624 10631 10636 10640 10645 10650 10656 10659 10662 10665 10668 10669 10670
10453 10459 10464 10471 10481 10491 10503 10517 10528 10536 10543 10547 10552 10556 10558 10559 10557 10557 10558 10557 10558 10561 10568 10574 10579 10585 10592 10599 10605 10611 10615 10622 10628 10632 10636 10640 10646 10650 10653 10654 10657 10659 10661
10445 10451 10456 10466 10476 10487 10502 10513 10520 10528 10536 10540 10544 10546 10548 10546 10544 10545 10545 10545 10548 10553 10561 10566 10572 10578 10584 10590 10597 10603 10608 10613 10619 10624 10627 10632 10636 10641 10644 10645 10646 10650 10652